Location: Harbor Isles
(36.0020°N, 86.4672°W)
Time: 23:03:59
(UTC+00:00)

Daily predictions for brighter satellites

Satellite Brightness Start Highest point End
(mag) Time Altitude Azimuth Time Altitude Azimuth Time Altitude Azimuth
SL-16 R/B 3.5 12:00:46 10° NW 12:04:49 20° W 12:08:51 10° SW
Cosmos 44 4.5 12:00:26 10° S 12:05:06 47° ESE 12:09:34 10° NE
ALOS 3.3 12:03:20 10° NNW 12:07:01 23° WNW 12:10:40 10° WSW
Cosmos 1602 4.0 12:03:42 10° SSW 12:07:21 43° W 12:11:01 10° N
Cosmos 1603 3.8 12:05:35 10° NNW 12:11:19 72° WSW 12:16:59 10° SSE
Cosmos 1452 Rocket 3.8 12:08:50 10° SW 12:13:51 45° WNW 12:18:55 10° N
Cosmos 1500 4.3 12:10:54 10° S 12:14:38 50° E 12:18:22 10° NNE
Feng Yun 1-1 Rocket 4.4 12:09:53 10° NNE 12:15:29 88° ESE 12:21:12 10° SSW
CZ-4C R/B 3.4 12:08:38 10° NW 12:15:57 49° WSW 12:23:54 10° S
ATLAS 3B R/B 2.8 22:44:50 10° NNW 22:51:27 55° NE 22:58:13 10° SE
Exosat Rocket 4.1 22:48:21 10° S 22:54:03 46° ESE 22:58:51 10° NE
IRS-1C Rocket 4.2 22:50:33 10° SSE 22:55:40 55° ENE 23:00:49 10° N
CZ-4B R/B 4.0 22:52:47 10° S 22:57:58 57° WSW 23:03:15 10° NNW
Nadezhda 4 Rocket 4.5 22:53:26 10° SSE 22:59:15 40° E 23:05:04 10° NNE
RESURS DK-1 2.3 22:56:08 10° SSW 23:00:13 74° ESE 23:04:21 10° NNE
SMAP 3.2 22:56:10 10° SSE 23:00:40 52° ENE 23:05:12 10° N
Meteor 2-6 Rocket 4.1 22:55:21 10° S 23:00:45 79° E 23:06:09 10° N
Cosmos 2251 Rocket 3.9 22:58:17 10° S 23:03:19 45° ESE 23:08:21 10° NNE
ERBS 3.5 23:01:12 10° NNW 23:03:58 23° NE 23:06:43 10° E
Cosmos 1302 Rocket 4.1 23:00:06 10° N 23:05:15 52° ENE 23:10:20 10° SE
ALOS 4.4 23:03:35 10° SSW 23:07:42 31° W 23:11:52 10° NW
Meteor 1-10 Rocket 4.2 23:03:49 10° S 23:09:20 82° E 23:14:55 10° N
BREEZE-M DEB (TANK) 3.3 23:14:40 10° NNW 23:16:32 19° NNE 23:17:36 15° ENE
Cosmos 1812 2.8 23:12:47 10° S 23:16:33 57° E 23:20:21 10° NNE
Cosmos 1733 Rocket 3.3 23:13:16 10° N 23:17:30 48° E 23:21:45 10° SSE
Cosmos 2278 Rocket 2.9 23:12:37 10° N 23:17:32 29° ENE 23:22:25 10° ESE
Cosmos 304 Rocket 3.7 23:14:50 10° NNW 23:19:38 68° ENE 23:24:24 10° SSE
Atlas Centaur 2 3.6 23:12:19 10° W 23:19:51 56° S 23:28:09 10° ESE
Cosmos 2360 Rocket 4.5 23:16:05 10° W 23:20:05 19° NW 23:24:06 10° N
SL-16 R/B 3.6 23:22:28 10° SE 23:26:18 19° E 23:28:36 15° ENE
Cosmos 2333 Rocket 3.2 23:22:23 10° SW 23:27:53 48° WNW 23:33:28 10° N
Envisat 3.1 23:24:52 10° SSE 23:29:47 52° ENE 23:34:43 10° N
Meteor 1-11 Rocket 3.9 23:23:51 10° N 23:29:47 62° E 23:35:39 10° SSE
Meteor 1-27 Rocket 3.7 23:25:13 10° S 23:30:51 76° E 23:36:39 10° NNE
CZ-4 R/B 2.3 23:27:56 10° SE 23:31:09 24° ENE 23:34:20 10° NNE
Cosmos 1536 3.3 23:31:05 10° N 23:34:51 38° E 23:38:34 10° SSE
Cosmos 2237 Rocket 2.2 23:33:37 10° SSW 23:39:17 75° ESE 23:44:59 10° NNE
SKYMED 2 3.6 23:35:33 10° NNE 23:39:51 59° E 23:44:07 10° S
Cosmos 2242 Rocket 3.6 23:36:31 10° S 23:40:59 66° E 23:45:31 10° NNE
ISS -1.6 23:40:31 10° N 23:41:54 13° NNE 23:41:54 13° NNE
STARLINK-60 3.2 23:40:03 10° SSW 23:43:21 55° SE 23:44:44 30° ENE
OAO 2 Rocket 3.6 23:39:15 10° WSW 23:44:12 61° SSE 23:47:24 22° E
H-2A R/B 3.9 23:41:49 10° S 23:45:22 43° W 23:48:56 10° NNW
Lacrosse 5 rocket 2.6 23:42:17 10° WSW 23:46:18 37° NW 23:49:31 14° NNE
Okean-O 2.6 23:42:11 10° SSE 23:46:37 89° WSW 23:51:04 10° NNW
Cosmos 1500 3.1 23:43:28 10° N 23:47:15 83° W 23:50:58 10° S
Cosmos 1862 Rocket 4.1 23:43:25 10° SSW 23:47:41 60° W 23:52:00 10° N
Cosmos 1703 Rocket 3.9 23:45:50 10° SSE 23:50:04 45° E 23:53:14 17° NNE
ATLAS 5 CENTAUR R/B 3.1 23:48:56 10° WSW 23:51:12 21° NW 23:52:28 13° N
Cosmos 1992 Rocket 4.1 23:46:52 10° N 23:51:58 51° ENE 23:57:02 10° SE
OAO 3 Rocket 3.5 23:48:15 10° WSW 23:52:52 54° SSE 23:55:16 27° E
SL-4 R/B 4.2 23:55:25 10° NW 23:57:39 15° NNW 23:59:24 12° N
